Ashland, WI

12:25 AM CDT on September 27, 2016 (GMT -0500)
Kennedy Memorial

Weather History for KASX - August, 2014

Change the Weather History Date:

Sunday, August 31, 2014

  Actual Average Record
Temperature  
Mean Temperature 64 °F -  
Max Temperature 79 °F 74 °F 96 °F (1961)
Min Temperature 50 °F 49 °F 38 °F (1967)
Degree Days  
Heating Degree Days 1    
Growing Degree Days 14 (Base 50)    
Moisture  
Dew Point 56 °F    
Average Humidity 89    
Maximum Humidity 100    
Minimum Humidity 62    
Precipitation  
Precipitation 0.24 in - - ()
Sea Level Pressure  
Sea Level Pressure 29.84 in    
Wind  
Wind Speed 2 mph (SE)    
Max Wind Speed 12 mph    
Max Gust Speed 20 mph    
Visibility 6 miles    
Events Fog , Rain , Thunderstorm    
Averages and records for this station are not official NWS values.
T = Trace of Precipitation, MM = Missing Value Source: NWS Daily Summary

Daily Weather History Graph

Daily Weather History Graph

Search for Another Location

Airport or City:

Trip Planner

Search our weather history database for the weather conditions in past years. The results will help you decide how hot, cold, wet, or windy it might be!

Date:

Astronomy

Aug. 31, 2014 Rise Set
Actual Time 6:22 AM CDT 7:44 PM CDT
Civil Twilight 5:51 AM CDT 8:15 PM CDT
Nautical Twilight 5:13 AM CDT 8:53 PM CDT
Astronomical Twilight 4:32 AM CDT 9:33 PM CDT
Moon 12:31 PM CDT (8/31) 10:37 PM CDT (8/31)
Length of Visible Light 14h 24m
Length of Day
13h 22m
Waxing Crescent, 32% of the Moon is Illuminated
Aug 31
Waxing Crescent
Sep 2
First Quarter
Sep 8
Full
Sep 15
Last Quarter
Sep 24
New

Hourly Weather History & Observations

Time (CDT) Temp. Dew Point Humidity Pressure Visibility Wind Dir Wind Speed Gust Speed Precip Events Conditions
12:19 AM 51.1 °F 51.1 °F 100% 29.92 in 1.2 mi Calm Calm - N/A   Partly Cloudy
12:27 AM 52.0 °F 51.1 °F 97% 29.92 in 0.8 mi Calm Calm - N/A   Mist
12:44 AM 50.0 °F 48.9 °F 96% 29.92 in 0.2 mi Calm Calm - N/A Fog Fog
12:53 AM 50.0 °F 50.0 °F 100% 29.93 in 0.2 mi Calm Calm - N/A Fog Fog
1:14 AM 51.1 °F 50.0 °F 96% 29.92 in 0.5 mi Calm Calm - N/A Fog Fog
1:24 AM 50.0 °F 50.0 °F 100% 29.91 in 0.2 mi Calm Calm - N/A Fog Fog
1:53 AM 51.1 °F 50.0 °F 96% 29.93 in 0.2 mi Calm Calm - N/A Fog Fog
2:35 AM 51.1 °F 51.1 °F 100% 29.94 in 0.5 mi Calm Calm - N/A Fog Fog
2:53 AM 51.1 °F 51.1 °F 100% 29.96 in 0.2 mi SW 3.5 mph - N/A Fog Fog
3:21 AM 51.1 °F 50.0 °F 96% 29.94 in 0.8 mi Calm Calm - N/A   Mist
3:29 AM 51.1 °F 50.0 °F 96% 29.94 in 1.2 mi Calm Calm - N/A   Mostly Cloudy
3:37 AM 50.0 °F 48.9 °F 96% 29.94 in 1.0 mi Calm Calm - N/A   Mist
3:53 AM 51.1 °F 51.1 °F 100% 29.94 in 5.0 mi ESE 3.5 mph - N/A   Mostly Cloudy
4:24 AM 51.1 °F 51.1 °F 100% 29.93 in 2.5 mi Calm Calm - N/A   Partly Cloudy
4:32 AM 50.0 °F 48.9 °F 96% 29.93 in 0.8 mi Calm Calm - N/A   Mostly Cloudy
4:43 AM 51.1 °F 50.0 °F 96% 29.93 in 1.0 mi Calm Calm - N/A   Mostly Cloudy
4:53 AM 51.1 °F 51.1 °F 100% 29.94 in 1.5 mi Calm Calm - N/A   Overcast
5:25 AM 52.0 °F 51.1 °F 97% 29.93 in 0.8 mi ESE 3.5 mph - N/A   Overcast
5:53 AM 52.0 °F 51.1 °F 97% 29.93 in 3.0 mi ESE 3.5 mph - N/A   Mostly Cloudy
6:12 AM 53.1 °F 52.0 °F 96% 29.92 in 2.5 mi Variable 4.6 mph - N/A   Overcast
6:27 AM 52.0 °F 52.0 °F 100% 29.92 in 9.0 mi East 5.8 mph - N/A   Mostly Cloudy
6:53 AM 53.1 °F 52.0 °F 96% 29.93 in 10.0 mi SE 3.5 mph - N/A   Clear
7:53 AM 57.0 °F 55.0 °F 93% 29.93 in 10.0 mi SE 3.5 mph - N/A   Clear
8:53 AM 61.0 °F 57.0 °F 87% 29.91 in 10.0 mi Variable 3.5 mph - N/A   Clear
9:53 AM 64.9 °F 57.9 °F 78% 29.88 in 10.0 mi ESE 5.8 mph - N/A   Clear
10:53 AM 69.1 °F 57.9 °F 68% 29.87 in 10.0 mi Variable 6.9 mph - N/A   Clear
11:53 AM 70.0 °F 59.0 °F 68% 29.86 in 10.0 mi South 6.9 mph - N/A   Mostly Cloudy
12:53 PM 66.0 °F 59.0 °F 78% 29.84 in 10.0 mi Variable 4.6 mph - N/A   Overcast
1:53 PM 71.1 °F 61.0 °F 70% 29.80 in 10.0 mi SE 9.2 mph - N/A   Mostly Cloudy
2:53 PM 75.0 °F 63.0 °F 66% 29.75 in 10.0 mi SSE 9.2 mph - N/A   Clear
3:53 PM 77.0 °F 63.0 °F 62% 29.73 in 10.0 mi South 8.1 mph - N/A   Partly Cloudy
4:53 PM 78.1 °F 66.0 °F 66% 29.71 in 10.0 mi Variable 6.9 mph - N/A   Mostly Cloudy
5:53 PM 78.1 °F 66.0 °F 66% 29.68 in 10.0 mi South 11.5 mph 19.6 mph N/A   Clear
6:53 PM 75.9 °F 66.9 °F 74% 29.66 in 10.0 mi South 9.2 mph 18.4 mph N/A   Clear
7:53 PM 73.9 °F 66.9 °F 79% 29.64 in 10.0 mi South 6.9 mph - N/A   Clear
9:46 PM 70.0 °F 64.0 °F 81% 29.67 in 10.0 mi NNW 8.1 mph - 0.00 in Rain , Thunderstorm Light Rain
9:53 PM 69.1 °F 64.0 °F 84% 29.66 in 10.0 mi NNE 5.8 mph - 0.01 in Rain , Thunderstorm Light Rain
10:02 PM 68.0 °F 64.0 °F 87% 29.65 in 10.0 mi Variable 5.8 mph - 0.01 in Rain , Thunderstorm Light Thunderstorms and Rain
10:22 PM 64.0 °F 63.0 °F 96% 29.69 in 2.0 mi SSW 5.8 mph - 0.11 in Rain , Thunderstorm Light Thunderstorms and Rain
10:38 PM 64.9 °F 64.0 °F 97% 29.67 in 10.0 mi SE 5.8 mph - 0.12 in Rain , Thunderstorm Light Rain
10:53 PM 66.0 °F 64.0 °F 93% 29.66 in 8.0 mi SE 5.8 mph - 0.14 in Rain Light Rain
11:53 PM 68.0 °F 66.0 °F 93% 29.63 in 8.0 mi Variable 5.8 mph - 0.09 in Rain Light Rain